Location: Hains Lake
(37.8540°N, 99.8578°W)
Time: 01:16:06
(UTC+00:00)

Transit 2A - Pass Details

Date: 19 April 2021
Orbit: 602 x 957 km, 66.7° (Epoch: 14 May)

Event Time Altitude Azimuth Distance (km) Brightness Sun altitude
Rises 23:49:52 0° 318° (NW) 2,901 9.7 16.6°
Reaches altitude 10° 23:52:23 10° 305° (NW) 2,024 9.4 16.1°
Maximum altitude 23:56:05 25° 250° (WSW) 1,333 8.8 15.4°
Drops below altitude 10° 00:00:01 10° 195° (SSW) 2,156 8.5 14.6°
Sets 00:02:48 0° 183° (S) 3,135 9.2 14.0°
